User: anonymous   Login
Location: Unspecified
(0.0000°N, 0.0000°E)
Time: 10:19:14
(UTC+00:00)
Language:

GONETS M 06 - Orbit

View from above orbital plane
View from above orbital plane
View from above satellite
View from above satellite

Ground track
Ground track

The orbit data is extracted from the following two-line orbital elements,

1 39250U 13048B   17080.85159853 +.00000010 +00000-0 +00000-0 0  9996
2 39250 082.4826 287.2817 0018782 044.4825 315.7743 12.42918229159868
Epoch (UTC): 21 March 2017 20:26:18
Eccentricity: 0.0018782
inclination: 82.4826°
perigee height: 1479 km
apogee height: 1509 km
right ascension of ascending node: 287.2817°
argument of perigee: 44.4825°
revolutions per day: 12.42918229
mean anomaly at epoch: 315.7743°
orbit number at epoch: 15986

The dashed part of the orbit path shows where the satellite is in the earth's shadow,  

DLR